Location: Be Tobo
(6.6442°N, 10.6239°W)
Time: 01:29:25
(UTC+00:00)

Delta 7925 Rocket - Pass Details

Date: 18 September 2020
Orbit: 645 x 1648 km, 26.3° (Epoch: 21 October)

Event Time Altitude Azimuth Distance (km) Brightness Sun altitude
Rises 19:38:30 0° 300° (WNW) 2,979 7.7 -15.2°
Reaches altitude 10° 19:40:43 10° 302° (WNW) 2,119 6.8 -15.8°
Maximum altitude 19:45:36 74° 27° (NNE) 794 3.5 -17.0°
Enters shadow 19:48:35 29° 107° (ESE) 1,478 4.4 -17.7°
